Location: Saginaw
(43.4195°N, 83.9508°W)
Time: 07:38:04
(UTC-04:00)

Daily predictions for brighter satellites

Satellite Brightness Start Highest point End
(mag) Time Altitude Azimuth Time Altitude Azimuth Time Altitude Azimuth
OAO 2 Rocket 4.4 21:48:37 10° SW 21:53:08 29° SSE 21:57:39 10° ESE
Cosmos 2333 4.4 21:50:27 10° NNW 21:56:09 62° ENE 22:01:50 10° SE
Cosmos 2322 4.4 21:52:08 10° NNW 21:57:42 53° WSW 22:03:13 10° S
deb Chang Zheng 4 3.5 21:54:03 10° NNE 21:58:25 74° ESE 22:02:45 10° S
CZ-4 SHROUD 3.9 21:56:29 10° SE 21:59:23 37° ENE 22:02:20 10° N
ATLAS 2AS CENTAUR R/B 3.9 21:53:46 10° SSE 21:59:39 26° ESE 22:05:52 10° NE
Cosmos 2360 Rocket 3.0 21:54:20 10° NW 21:59:47 50° WSW 22:05:12 10° S
Sich 1 3.9 21:56:11 10° SSE 22:00:07 33° E 22:04:02 10° NNE
Cosmos 1151 Rocket 3.6 21:56:26 10° NNW 22:00:43 59° W 22:04:58 10° S
Cosmos 1271 Rocket 4.0 21:58:43 10° NNE 22:02:03 27° ENE 22:05:24 10° SE
Cosmos 1328 3.8 22:00:06 10° S 22:04:02 85° E 22:08:01 10° N
Cosmos 1626 4.4 22:03:19 10° E 22:04:07 11° E 22:04:54 10° ENE
ATLAS 3B R/B 4.0 21:59:56 10° NNW 22:06:11 31° NE 22:12:06 10° E
ERS-1 Rocket 3.6 22:02:32 10° S 22:07:29 58° W 22:12:28 10° NNW
Cosmos 1633 Rocket 3.7 22:03:53 10° SSE 22:07:54 37° E 22:11:55 10° NNE
YAOGAN 6 3.4 22:05:07 10° SE 22:08:27 35° ENE 22:11:44 10° N
ERBS 3.2 22:05:27 10° S 22:08:33 29° SE 22:11:38 10° ENE
Cosmos 2242 Rocket 4.2 22:08:45 10° N 22:13:00 40° ENE 22:17:06 11° SSE
Envisat 3.1 22:09:47 10° SSE 22:14:52 82° WSW 22:19:59 10° NNW
Cosmos 1674 4.3 22:12:22 10° SW 22:15:58 37° WNW 22:19:36 10° N
Cosmos 1703 4.2 22:14:46 10° SSE 22:18:11 30° E 22:21:39 10° NNE
SL-14 R/B 3.4 22:15:47 10° S 22:19:41 59° E 22:23:40 10° NNE
NOSS 3-1 (C) 3.5 22:16:00 10° SW 22:21:54 87° NW 22:28:31 10° NE
USA 245 3.2 22:21:00 16° SE 22:22:22 26° ENE 22:24:20 10° NNE
Meteor 1-27 4.2 22:17:01 10° N 22:22:43 85° E 22:28:18 10° S
Cosmos 1805 Rocket 3.7 22:21:08 10° S 22:25:35 83° W 22:30:02 10° N
PSLV R/B 3.2 22:23:17 10° S 22:26:19 82° W 22:29:22 10° NNW
USA 32 4.3 22:22:47 10° N 22:27:56 51° E 22:32:30 13° SSE
Cosmos 220 Rocket 4.2 22:25:01 10° S 22:29:17 54° ESE 22:33:38 10° NNE
Cosmos 2227 Rocket 2.7 22:25:21 10° S 22:30:33 40° ESE 22:35:48 10° NE
Cosmos 1300 3.0 22:27:51 10° NNW 22:31:41 68° W 22:35:29 10° S
Cosmos 1937 Rocket 3.5 22:27:47 10° S 22:32:54 61° ESE 22:38:03 10° NNE
MetOp-A 4.2 22:30:34 10° SSE 22:35:55 84° WSW 22:41:19 10° NNW
Cosmos 990 Rocket 4.2 22:33:54 10° S 22:38:50 49° ESE 22:43:47 10° NNE
Cosmos 292 Rocket 3.8 22:37:17 10° NNW 22:42:04 80° WSW 22:46:00 15° SSE
H-2A R/B 3.7 22:38:19 10° SSW 22:42:24 33° W 22:46:28 10° NNW
Cosmos 1707 Rocket 4.2 22:39:20 10° NNW 22:43:36 54° W 22:47:52 10° S
SPOT 5 3.5 22:40:31 10° S 22:45:03 53° W 22:49:53 10° NNW
SL-16 R/B 3.3 22:41:26 10° N 22:46:31 32° NE 22:50:40 14° ESE
CZ-4B R/B 3.5 22:43:10 10° NNE 22:48:27 77° ESE 22:53:36 10° S
Cosmos 1666 Rocket 4.0 22:44:19 10° SSW 22:48:40 64° W 22:53:07 10° N
ARGOS 3.2 22:44:45 15° SSE 22:49:13 77° ENE 22:54:37 10° N
Cosmos 2333 Rocket 2.2 22:45:39 10° NNW 22:51:27 83° ENE 22:55:43 19° SSE
Cosmos 1455 2.6 22:50:06 10° N 22:53:49 47° ENE 22:55:49 24° SE
OTV 4 1.7 22:52:30 10° SW 22:54:46 24° S 22:54:46 24° S
Cosmos 1726 3.2 22:52:07 10° NNW 22:55:44 43° W 22:59:13 11° SSW
Cosmos 1241 Rocket 4.4 22:50:42 10° SSW 22:56:50 71° ESE 23:03:05 10° NE
Cosmos 2297 Rocket 2.5 22:51:53 11° S 22:56:59 45° ESE 23:02:20 10° NE
Cosmos 2219 Rocket 2.4 22:53:18 10° NNW 22:58:52 67° WSW 23:03:06 18° S
Cosmos 1346 3.1 22:57:45 28° SSE 22:59:07 57° E 23:02:06 10° NNE
DELTA 2 R/B(2) 4.3 22:58:01 10° WSW 22:59:30 32° SSW 22:59:30 32° SSW
Landsat 7 4.0 22:57:59 21° SE 23:01:02 60° ENE 23:05:44 10° N
Cosmos 1470 Rocket 3.4 22:59:12 17° S 23:02:28 72° E 23:06:48 10° NNE
Meteor 2-10 4.3 22:57:14 10° NNW 23:02:59 83° W 23:07:31 17° S
COSMOS 2428 4.1 22:58:06 10° NW 23:03:03 31° WSW 23:07:59 10° SSW
Cosmos 1933 Rocket 3.5 23:00:00 17° S 23:03:23 71° E 23:07:51 10° NNE
Meteor 1-4 Rocket 3.5 23:00:39 10° NNW 23:04:14 45° W 23:06:57 15° SSW
NOSS 0 Rocket 4.1 22:58:58 10° NNW 23:05:06 70° WSW 23:09:35 19° SSE
Lacrosse 4 Rocket 2.4 23:02:13 10° NNW 23:06:26 41° NE 23:08:55 21° ESE
Nadezhda 1 Rocket 3.9 23:01:38 10° N 23:07:46 82° E 23:12:17 19° S
SL-08 RB Rocket 3.7 23:05:02 21° S 23:08:01 84° WSW 23:12:33 10° NNW
Cosmos 1269 Rocket 4.5 23:04:19 10° N 23:09:30 49° ENE 23:12:32 23° SE
Cosmos 1933 4.4 23:08:34 10° NNE 23:12:15 32° ENE 23:13:41 25° ESE
Terra 2.0 23:14:21 26° SE 23:16:54 60° ENE 23:21:36 10° N
COSMOS 2455 3.0 23:12:09 10° NNW 23:18:11 66° ENE 23:21:50 25° SE
H-2A R/B 2.2 23:15:25 24° SSE 23:18:41 73° ENE 23:24:09 10° N
Cosmos 1980 4.0 23:17:46 10° NNW 23:23:19 59° WSW 23:26:49 23° S
Cosmos 1745 Rocket 4.2 23:17:11 10° SSW 23:23:22 71° W 23:29:32 10° N
Tiangong 1 0.8 23:21:27 10° W 23:24:33 81° S 23:25:23 44° E
Cosmos 1048 Rocket 4.4 23:20:25 10° NNW 23:25:42 55° ENE 23:28:25 28° SE
Cosmos 1125 Rocket 3.6 23:23:43 24° S 23:26:49 57° ESE 23:32:02 10° NNE
Cosmos 2221 Rocket 4.1 23:25:32 10° N 23:29:56 45° ENE 23:31:33 32° SE
Cosmos 1709 Rocket 4.0 23:27:43 25° SSE 23:31:16 61° E 23:37:18 10° NNE
Spot 4 3.9 23:29:24 31° SE 23:31:41 66° ENE 23:36:31 10° N
Cosmos 2237 Rocket 2.7 23:29:29 10° NW 23:35:01 52° WSW 23:38:17 24° S
Cosmos 1900 4.3 23:31:32 10° NNW 23:36:32 83° WSW 23:38:38 35° SSE
OAO 2 Rocket 4.1 23:32:37 10° WSW 23:37:20 33° S 23:38:02 31° S
Cosmos 1869 3.6 23:33:29 10° NNW 23:37:30 63° W 23:39:13 32° SSW
Cosmos 389 Rocket 3.6 23:34:33 10° N 23:37:44 29° ENE 23:38:11 28° E
Cosmos 372 Rocket 4.5 23:36:14 32° SE 23:37:54 41° ESE 23:42:47 10° NE
Cosmos 1626 2.8 23:36:48 22° SSW 23:39:01 51° W 23:42:42 10° N
Cosmos 2082 4.3 23:36:57 10° SW 23:42:35 59° WNW 23:48:16 10° NNE
Cosmos 1862 Rocket 4.3 23:38:42 10° NNW 23:42:52 46° W 23:45:05 24° SSW
CARTOSAT-1 3.7 23:42:07 34° S 23:43:55 68° W 23:48:13 10° NNW
ERBS 4.3 23:42:10 10° W 23:45:20 32° NW 23:48:31 10° NNE
ATLAS 2AS CENTAUR R/B 3.2 23:42:18 10° SW 23:49:52 77° NW 23:58:01 10° NE
IGS 5A 3.7 23:50:56 37° SSW 23:52:22 62° W 23:56:32 10° NNW
Cosmos 44 4.5 23:55:07 28° ESE 23:55:11 28° ESE 23:59:47 10° NE
